Regional Weather Roundup
Issued by NWS

Home | Current Version | Previous Version | Text Only | Print | Product List | Glossary On
Versions: 1 2 3 4 5 6 7 8 9 10 11 12 13 14 15 16 17 18 19 20 21 22 23 24 25 26 27 28 29 30 31 32 33 34 35 36 37 38 39 40 41 42 43 44 45 46 47 48 49 50
000
ASUS43 KDTX 271910
RWRMI
MICHIGAN HOURLY REGIONAL WEATHER ROUNDUP
NATIONAL WEATHER SERVICE DETROIT/PONTIAC MI
300 PM EDT FRI MAR 27 2015

NOTE: "FAIR" INDICATES FEW OR NO CLOUDS BELOW 12,000 FEET WITH NO
SIGNIFICANT WEATHER AND/OR OBSTRUCTION TO VISIBILITY.

MIZ047>049-052>055-059>063-066>070-074>076-081>083-272000-
SOUTHEAST LOWER MICHIGAN

CITY           SKY/WX    TMP DP  RH WIND       PRES   REMARKS
ADRIAN         CLOUDY    25  11  55 N13       30.05R
ALMA             N/A     27   1  33 NW3       30.07F
ANN ARBOR      CLOUDY    26  11  52 NW13      30.03S
BAD AXE          N/A     19   6  58 N16G23    30.07S
DETROIT CITY   LGT SNOW  26  12  55 N14       30.03S
DETROIT        FLURRIES  27  13  55 NW10      30.04R
FLINT          LGT SNOW  24  13  62 N14       30.06S
GROSSE ILE     CLOUDY    27  14  59 NW12G18   30.02S
HILLSDALE      PTSUNNY   27   5  39 N14G22    30.01F
HOWELL         LGT SNOW  22  16  77 N7        30.03S

CITY           SKY/WX    TMP DP  RH WIND       PRES   REMARKS
JACKSON        CLOUDY    24   6  46 NW13      30.04S
LAMBERTVILLE   CLOUDY    28  16  59 NW10G21   30.04S
LANSING        PTSUNNY   27   2  34 NW12G21   30.06S
LAPEER         NOT AVBL
MASON          CLOUDY    24   5  44 N10G17    30.05S
MONROE         LGT SNOW  25  18  74 NW9       30.02S
MT. CLEMENS    CLOUDY    26  12  55 N16       30.01S
PONTIAC        FLURRIES  24  10  55 N16       30.01S
PORT HOPE        N/A     18  10  71 N14G23    30.07R
PORT HURON     LGT SNOW  23  14  68 N13G18    30.03S
TRI CITIES     CLOUDY    27   3  35 N14       30.07S
YPSILANTI      FLURRIES  28  14  55 N16       30.04R
$$
MIZ043>046-050>051-056>058-064>065-071>073-077>080-272000-
SOUTHWEST LOWER MICHIGAN

CITY           SKY/WX    TMP DP  RH WIND       PRES   REMARKS
BATTLE CREEK     N/A     29   2  31 NW16G22   30.05F
BENTON HARBOR  CLOUDY    25  10  53 N9G29     30.13F
BIG RAPIDS       N/A     25   2  38 N10G21    30.06F
COLDWATER        N/A     28  -3  26 N12G21    30.04S
HOLLAND          N/A     29  12  49 NW17G30   30.11S
GRAND RAPIDS     N/A     29   3  33 NW18      30.07F
KALAMAZOO        N/A     31   1  28 N12G23    30.06F
MARSHALL         N/A     29   1  31 N9        30.04S
MUSKEGON       PTSUNNY   28   4  35 N15       30.13S
$$
MIZ016>042-272000-
NORTHERN LOWER MICHIGAN

CITY           SKY/WX    TMP DP  RH WIND       PRES   REMARKS
ALPENA         PTSUNNY   17   6  62 NW16      30.12S
BEAVER ISLAND    N/A     19  -1  41 N10G18    30.18F
BELLAIRE         N/A     18   3  52 NW9       30.17S
CADILLAC         N/A     19   1  45 NW14G24   30.07S
CHARLEVOIX       N/A     17   6  64 N10       30.20F
FRANKFORT        N/A     22   3  44 N15       30.18F
GAYLORD          N/A     16  -1  47 N8        30.07S
GRAYLING         N/A     21   1  41 N12G21    30.07F
HARBOR SPRINGS   N/A     18   2  50 N6        30.15S
HOUGHTON LAKE    N/A     22   1  40 NW13G21   30.05F
MANISTEE         N/A     19   3  49 N17       30.17S
OSCODA         PTSUNNY   22   6  49 N16G22    30.08F
PELLSTON         N/A     18   2  49 N12       30.15F
TRAVERSE CITY    N/A     16   6  65 NE9       30.17F
$$
MIZ007>008-015-272000-
EASTERN UPPER MICHIGAN

CITY           SKY/WX    TMP DP  RH WIND       PRES   REMARKS
KINROSS          N/A     16   1  53 NW15      30.14F
MACKINAC ISLAN   N/A     18  -1  43 N12       30.15F
NEWBERRY         N/A     12   2  63 N13G21    30.17F WCI  -3
S. S. MARIE      N/A     14   1  56 NW15G22   30.14F WCI  -1
$$
MIZ004>006-011>014-085-272000-
CENTRAL UPPER MICHIGAN

CITY           SKY/WX    TMP DP  RH WIND       PRES   REMARKS
MANISTIQUE       N/A     18   1  48 N16       30.19F
ESCANABA         N/A     21   0  39 N8G20     30.20F
MENOMINEE        N/A     25   3  39 NE7       30.20F
SAWYER-GWINN   SUNNY     14   3  62 N13       30.18F WCI   0
$$
MIZ001>003-009>011-084-272000-
WESTERN UPPER MICHIGAN

CITY           SKY/WX    TMP DP  RH WIND       PRES   REMARKS
IRON MOUNTAIN    N/A     24   0  35 N9        30.16F
HOUGHTON         N/A     20   6  55 W7        30.20F
COPPER HARBOR    N/A     16   2  54 NE3       30.26F
IRONWOOD         N/A     21  10  63 NW7       30.17F
$$

ABBREVIATIONS USED IN REMARKS
   TC - TEMPERATURE IN CELSIUS
  WCI - WIND CHILL INDEX
   HX - HEAT INDEX
  VSB - VISIBILITY



USA.gov is the U.S. government's official web portal to all federal, state and local government web resources and services.